Simultaneous Nadir Overpasses (SNOs) Predictions

Prediction of SNOs between GOES-16 and METOP-C Satellite Orbit:

Table of predicted SNOs for the next 14.0 days since TLE Epoch: 9/15/2019
Index Date Time (GOES-16) GOES-16 Lat,Lon METOP-C Lat,Lon Distance(km) Time Diff (sec)
1 09/16/2019 02:13:21 -0.01, -75.19 0.92, -71.10 465.81 80
2 09/17/2019 14:32:11 0.00, -75.21 0.13, -75.65 51.46 80
3 09/20/2019 02:33:13 -0.00, -75.20 -0.02, -75.26 6.60 80
4 09/22/2019 14:31:25 0.00, -75.23 -0.10, -74.83 46.11 80
5 09/24/2019 02:50:25 -0.00, -75.23 -0.95, -79.42 478.38 80
6 09/25/2019 02:27:06 -0.00, -75.23 0.17, -74.43 91.57 80
7 09/26/2019 14:45:57 0.01, -75.26 0.84, -78.99 424.89 80
8 09/27/2019 14:27:58 0.01, -75.27 -0.27, -74.00 145.53 80
9 09/29/2019 02:46:58 -0.01, -75.28 -0.76, -78.59 377.61 80




NCC Satellite Simultaneous Nadir Overpasses (SNOs) Prediction Service
